Location: Gro�wechsungen
(51.4926°N, 10.6901°E)
Time: 18:23:53
(UTC+00:00)

Cosmos 2082 Rocket - Pass Details

Date: 17 January 2021
Orbit: 832 x 854 km, 71.0° (Epoch: 05 March)

Event Time Altitude Azimuth Distance (km) Brightness Sun altitude
Rises 20:15:34 0° 329° (NNW) 3,437 5.9 -41.7°
Reaches altitude 10° 20:18:02 10° 329° (NNW) 2,498 5.1 -42.0°
Enters shadow 20:18:54 15° 328° (NNW) 2,170 4.7 -42.2°
